Terminal Aerodrome Forecast
Issued by NWS Sterling, VA

Home | Current Version | Previous Version | Text Only | Print | Product List | Glossary On
Versions: 1 2 3 4 5 6 7 8 9 10 11 12 13 14 15 16 17
000
FTUS41 KLWX 222300
TAFCHO
TAF
KCHO 222339Z 2300/2324 00000KT 2SM -RA BR OVC002
     FM230500 00000KT 3SM -RA BR OVC008
     FM230900 VRB03KT 3SM -RA BR OVC003
     FM231100 00000KT 3SM -DZ BR OVC003
     FM231500 00000KT 3SM -DZ BR OVC008
     FM232300 00000KT P6SM OVC008=

USA.gov is the U.S. government's official web portal to all federal, state and local government web resources and services.